#timestamp,LO_Frequency,Hit,StdDev 
1501437615.5,286046999.8,N,1.3
1501437635.3,286047000.2,N,1.2
1501437655.1,286047000.9,N,1.2
1501437675.9,286047000.5,N,1.1
1501437695.7,286047000.0,N,1.1
1501437715.6,286047000.1,N,1.1
1501437735.4,286047000.1,N,1.1
1501437755.2,286047000.4,N,1.1
1501437775.1,286047000.1,N,1.0
1501437776.0,286047000.1,N,1.0
1501437795.8,286047004.0,P,1.6
1501437815.7,286047002.0,N,1.4
1501437835.5,286047000.6,N,1.4
1501437855.3,286047002.7,N,1.3
1501437875.2,286047000.3,N,1.3
1501437925.0,286047000.1,E,nan
1501437935.9,286047000.6,N,0.0
1501437955.7,286047000.5,P,0.1
1501437975.5,286046998.1,P,1.2
1501437995.4,286047000.8,N,1.1
1501438015.2,286047000.6,N,1.0
1501438035.1,286047000.6,N,0.9
1501438036.0,286047000.6,N,0.9
1501438055.8,286047000.0,N,0.8
1501438075.6,286046999.8,N,0.8
1501438095.5,286047000.0,N,0.8
1501438115.3,286047000.0,N,0.7
1501438135.2,286047001.2,N,0.8
1501438155.9,286047000.7,N,0.7
1501438175.7,286047002.7,P,1.2
1501438195.6,286046999.7,N,1.3
1501438215.4,286047000.2,N,1.2
1501438235.3,286046999.7,N,1.1
1501438255.1,286046999.7,N,1.1
1501438275.8,286047000.4,N,1.0
1501438295.7,286047000.0,N,0.9
1501438315.5,286047000.2,N,0.9
1501438335.4,286047000.2,N,0.8
1501438355.2,286047000.2,N,0.8
1501438375.0,286047002.3,N,0.9
1501438406.0,286047002.6,E,nan
1501438415.9,286047001.0,N,0.0
1501438435.7,286046999.4,P,0.8
1501438455.6,286046999.4,N,0.8
1501438475.4,286046999.2,N,0.7
1501438495.3,286046996.5,P,1.6
1501438515.1,286046999.1,N,1.4
1501438516.0,286046999.1,N,1.2
1501438535.8,286046998.3,N,1.1
1501438555.7,286046998.5,N,1.0
1501438575.5,286047000.8,N,1.2
1501438595.4,286047001.1,N,1.4
1501438615.2,286047001.0,N,1.4
1501438635.0,286046998.5,N,1.4
1501438635.9,286046998.5,N,1.3
1501438655.8,286046998.8,N,1.3
1501438675.6,286046998.6,N,1.2
1501438695.5,286046998.5,N,1.2
1501438715.3,286046998.6,N,1.2
1501438735.1,286047000.4,N,1.2
1501438755.9,286046996.5,P,1.3
1501438775.7,286047000.6,N,1.7
1501438795.5,286047000.2,N,1.6
1501438815.4,286046998.1,N,1.5
1501438835.2,286047000.2,N,1.4
1501438855.1,286047000.7,N,1.4
1501438856.0,286047000.7,N,1.4
1501438875.8,286047001.2,N,1.4
1501438895.6,286047001.0,N,1.4
1501438915.5,286047000.3,N,1.4
1501438935.3,286047000.2,N,1.3
1501438955.2,286047002.8,N,1.5
1501438975.9,286047002.8,N,1.6
1501438995.7,286047001.7,N,1.6
1501439015.6,286047002.4,N,1.6
1501439035.4,286047004.2,N,1.8
1501439055.3,286047002.0,N,1.7
1501439075.1,286047001.7,N,1.7
1501439076.0,286047001.7,N,1.7
1501439095.8,286047001.8,N,1.6
1501439115.7,286047003.9,N,1.7
1501439135.5,286047003.2,N,1.7
1501439155.3,286047003.3,N,1.8
1501439175.2,286047004.2,N,1.8
1501439195.0,286047003.7,N,1.8
1501439195.9,286047003.7,N,1.8
1501439215.8,286047003.4,N,1.8
1501439235.6,286047003.7,N,1.9
1501439255.4,286047004.1,N,1.9
1501439275.3,286047004.1,N,1.8
1501439295.1,286047005.8,P,1.9
1501439315.9,286047003.8,N,1.6
1501439335.7,286047003.1,N,1.4
1501439355.5,286047003.8,N,1.3
1501439375.4,286047004.2,P,0.3
1501439395.2,286047000.8,P,1.5
1501439415.1,286046998.2,N,2.4
1501439416.0,286046998.2,N,2.6
1501439435.8,286047000.7,N,2.4
1501439455.6,286046998.4,N,2.4
1501439475.5,286047001.2,N,2.2
1501439495.3,286046996.7,N,2.4
1501439515.2,286046996.9,N,2.5
1501439535.9,286046999.3,N,2.4
1501439555.7,286046996.5,N,2.5
1501439575.6,286046999.2,N,2.4
1501439595.4,286046999.0,N,2.3
1501439615.2,286046998.6,N,2.2
1501439635.1,286046999.0,N,2.2
1501439636.0,286046999.0,N,2.1
1501439655.8,286046999.2,N,2.0
1501439675.7,286046996.9,N,2.1
1501439695.5,286046998.3,N,2.0
1501439715.3,286047000.7,N,2.0
1501439735.2,286047001.1,N,2.0
1501439755.0,286047001.2,N,2.0
1501439755.9,286047001.2,N,2.0
1501439775.8,286047000.5,N,1.9
1501439795.6,286047000.8,N,1.9
1501439815.4,286046999.7,N,1.9
1501439835.3,286047002.1,N,1.9
1501439855.1,286047002.7,N,2.0
1501439875.9,286047001.6,N,1.9
1501439895.7,286047002.2,N,1.9
1501439915.5,286047002.3,N,1.7
1501439935.4,286047002.3,N,1.8
1501439955.2,286047001.9,N,1.8
1501439975.1,286047002.2,N,1.8
1501439976.0,286047002.2,N,1.9
1501439995.8,286047000.1,N,1.8
1501440015.6,286047001.5,N,1.8
1501440035.5,286047004.1,N,1.9
1501440055.3,286047002.1,N,1.8
1501440075.2,286046999.7,N,1.8
1501440095.0,286047000.9,P,0.2
1501440095.9,286047000.9,P,0.1
1501440115.8,286046998.6,P,1.0
1501440135.6,286046998.5,N,1.1
1501440155.4,286046998.3,N,1.2
1501440175.3,286046998.1,N,1.2
1501440195.1,286046998.5,N,1.2
1501440215.8,286046999.5,N,1.1
1501440235.7,286046997.0,N,1.3
1501440255.5,286046996.5,N,1.4
1501440275.4,286046997.4,N,1.4
1501440295.2,286046997.7,N,1.4
1501440315.0,286046997.3,N,1.4
1501440315.9,286046997.3,N,1.4
1501440335.8,286046996.7,P,0.9
1501440355.6,286046998.9,N,1.0
1501440375.5,286046996.8,P,1.0
1501440395.3,286046997.7,N,0.9
1501440415.1,286046997.5,N,0.8
1501440435.9,286046995.4,P,1.1
1501440455.7,286046999.0,N,1.5
1501440475.6,286046996.5,N,1.3
1501440495.4,286046999.0,N,1.4
1501440515.2,286046998.8,N,1.4
1501440535.1,286046998.6,N,1.3
1501440536.0,286046998.6,N,1.2
1501440555.8,286047001.0,N,1.5
1501440575.7,286046998.1,N,1.4
1501440595.5,286046998.4,N,1.4
1501440615.3,286046999.0,N,1.3
1501440635.2,286046998.9,N,1.3
1501440655.0,286046996.9,N,1.3
1501440655.9,286046996.9,N,1.3
1501440675.8,286046996.5,N,1.3
1501440695.6,286046999.4,N,1.3
1501440715.4,286046998.3,N,1.3
1501440735.3,286046998.8,N,1.3
1501440755.1,286046999.1,N,1.2
1501440775.9,286046998.6,N,1.2
1501440795.7,286046998.2,N,1.2
1501440815.5,286046999.1,N,1.2
1501440835.4,286046999.5,N,1.2
1501440855.2,286046999.0,N,1.2
1501440875.0,286046998.2,N,1.1
1501440875.9,286046998.2,N,1.1
1501440895.8,286046998.2,N,1.1
1501440915.6,286046998.6,N,1.1
1501440935.5,286046998.9,N,1.1
1501440955.3,286046999.1,N,1.1
1501440975.1,286046999.6,N,0.9
1501440995.9,286046999.4,N,0.9
1501441015.7,286046997.8,N,0.9
1501441035.6,286046997.0,P,0.8
1501441055.4,286047001.1,N,1.7
1501441075.2,286046998.5,N,1.5
1501441095.1,286047000.8,N,1.5
1501441096.0,286047000.8,N,1.5
1501441115.8,286047001.2,N,1.5
1501441135.7,286047000.8,N,1.5
1501441155.5,286047001.0,N,1.4
1501441175.3,286046998.3,N,1.5
1501441195.2,286046999.5,N,1.4
